Wind_Speed
5 5 5 5 5 5 4 4 4 4 3 2 2 2 2 1 0 1 1 2 2 2 2 2 2 2 3 3 3 3 4 4 4 5 4 4 4 4 4 4 3 3 3 3 3 3 4 4 4
5 6 6 5 6 5 5 4 4 3 3 3 3 2 2 1 1 1 1 1 2 1 1 1 1 2 2 2 2 2 3 3 3 3 3 3 3 3 3 3 3 4 4 3 3 4 4 4 5
6 6 6 6 6 5 6 5 4 4 4 4 4 3 2 2 1 1 1 1 1 1 1 1 1 1 1 2 2 2 2 2 2 2 2 2 2 3 3 3 4 4 4 4 4 4 5 5 6
6 7 7 7 6 6 7 7 6 6 5 6 5 5 4 3 3 2 2 2 1 1 1 1 1 0 0 1 1 1 1 0 1 1 1 1 1 2 3 3 3 4 4 4 4 5 5 6 6
7 7 7 7 7 7 7 8 8 7 7 7 6 6 5 5 5 4 3 3 3 2 1 2 2 1 1 1 1 2 1 1 1 2 2 1 1 1 2 3 3 3 4 4 5 5 6 6 7
7 7 7 7 7 8 8 9 9 9 8 7 7 7 6 6 6 6 5 4 4 3 3 3 4 3 3 2 2 2 2 2 2 3 3 2 2 2 2 2 3 4 4 5 5 6 7 7 7
7 7 7 7 7 7 8 9 10 10 9 8 8 8 8 7 7 7 6 5 5 4 4 4 4 4 4 4 3 3 3 3 4 4 3 3 3 3 3 3 3 4 5 5 6 7 7 8 8
7 7 7 7 7 7 7 8 9 10 9 9 9 9 9 9 8 7 7 7 6 5 5 5 5 5 5 5 4 4 4 4 5 5 5 5 5 4 4 5 5 6 6 7 7 8 8 8 8
7 8 8 8 7 7 7 8 8 9 9 10 10 10 10 10 10 9 9 8 8 7 7 6 5 6 5 5 5 5 5 6 6 5 6 6 6 6 6 6 6 7 8 8 8 8 8 8 9
8 8 9 9 8 8 8 8 8 9 9 9 10 10 10 11 11 11 10 10 9 9 8 7 7 6 7 7 7 7 6 6 7 7 7 7 6 6 6 7 8 8 9 9 8 8 8 8 9
9 9 9 9 9 9 9 8 8 8 9 10 10 10 10 10 11 11 11 11 11 11 10 10 9 8 8 8 8 8 8 8 8 8 8 7 7 7 8 8 9 9 9 9 9 8 8 8 8
10 10 10 10 10 10 10 10 10 10 10 10 10 10 10 11 12 12 11 12 12 12 12 11 10 10 10 9 9 9 9 9 9 9 8 8 8 9 8 9 10 9 9 9 9 9 9 8 8
10 10 10 10 11 11 11 11 11 11 10 10 11 11 11 12 13 13 12 12 12 12 12 12 11 11 11 11 11 11 10 10 10 10 9 8 8 8 9 9 9 10 9 9 9 9 9 9 8
10 10 10 10 11 12 11 11 11 11 11 11 11 12 13 12 12 12 12 13 13 13 12 12 12 12 12 12 12 12 11 11 11 10 9 9 8 9 9 9 9 9 9 8 9 9 8 8 8
10 10 10 10 11 12 13 13 12 12 12 12 12 12 12 12 12 12 12 13 13 13 14 14 13 13 14 13 13 13 12 11 11 10 10 9 9 9 9 8 9 9 9 9 9 9 9 9 9
11 10 10 10 12 12 13 13 12 13 13 13 13 13 12 12 12 13 13 13 13 14 14 14 14 14 14 14 14 14 13 12 12 11 11 10 10 10 9 9 9 9 9 9 9 9 9 9 10
11 11 11 11 12 12 13 13 13 13 13 13 13 13 13 13 13 13 14 14 14 14 14 14 14 15 14 14 14 14 13 13 13 12 12 12 11 11 10 10 10 10 9 10 10 10 10 10 9
11 12 12 12 12 13 13 13 13 14 15 15 14 14 13 12 13 13 13 14 14 14 14 14 14 14 14 14 14 14 14 13 13 12 12 12 12 12 11 11 11 11 10 11 11 10 10 10 9
12 12 12 13 13 13 13 13 13 14 15 16 15 15 14 12 12 13 13 13 13 13 14 15 15 14 14 14 14 14 14 14 13 13 13 13 12 12 12 11 11 11 11 11 11 10 10 10 10
12 12 12 13 14 14 14 14 15 15 15 17 17 15 14 13 12 12 13 14 14 15 15 15 16 15 15 15 15 14 14 14 14 14 13 13 13 13 12 12 11 11 11 11 10 9 9 10 11
12 12 12 12 13 14 14 14 15 16 16 17 17 17 16 14 13 12 13 13 14 15 16 16 15 15 15 15 15 14 14 13 13 13 14 14 13 13 13 13 12 11 11 11 10 10 10 10 11
12 12 13 13 13 13 14 14 14 15 16 16 16 16 15 13 13 13 13 13 13 14 15 15 15 15 15 14 14 13 13 13 13 13 13 13 13 13 13 13 12 12 11 12 11 11 11 10 10
12 12 13 13 13 14 14 14 13 14 14 14 15 16 15 15 14 14 14 14 14 14 15 15 14 14 14 14 13 13 13 13 13 13 13 12 13 13 13 13 13 12 12 13 12 12 12 11 11
13 14 14 14 14 15 14 15 13 13 13 14 15 16 16 15 15 15 14 14 14 14 14 13 14 14 14 14 14 14 13 14 14 14 14 13 13 13 13 13 13 13 13 14 13 12 12 12 11
14 14 14 14 15 15 14 14 13 13 13 13 14 15 15 15 15 15 15 14 13 13 13 14 14 14 14 14 14 14 14 14 14 15 14 15 15 14 15 14 14 14 14 14 14 13 13 13 12
14 14 14 15 14 14 14 14 12 12 12 13 13 14 14 15 15 15 15 15 15 15 14 14 13 13 14 15 14 15 15 15 15 15 15 15 15 15 15 15 14 14 14 14 14 14 13 13 13
14 14 15 15 15 15 14 13 12 12 13 13 13 14 14 14 15 15 15 15 15 15 15 15 14 14 14 15 15 14 15 15 15 16 16 16 16 15 14 14 15 15 15 15 14 14 14 14 13
15 15 15 15 16 15 14 13 12 11 12 12 13 13 14 14 14 15 15 15 15 15 15 15 15 15 14 14 15 15 15 15 15 15 16 16 16 16 15 15 15 15 16 15 15 15 15 15 14
15 16 16 16 16 16 15 13 12 11 11 12 12 13 13 13 14 15 15 14 14 14 15 15 16 16 16 16 16 16 16 15 16 16 16 16 16 16 16 16 15 15 15 16 16 15 15 15 15
17 17 17 17 16 16 17 13 13 12 12 12 13 13 13 13 13 14 14 14 14 14 15 16 16 17 17 17 17 16 16 16 16 16 17 17 17 17 16 15 14 15 15 15 15 15 15 14 13
Wind_Direction
196 200 199 202 201 208 201 203 200 193 182 185 178 176 187 178 134 28 34 35 24 36 44 34 43 62 77 85 87 78 72 68 68 68 62 55 54 52 50 45 43 38 32 29 22 18 16 12 5
209 215 217 214 208 216 219 228 217 208 206 213 214 206 202 229 282 341 18 10 3 339 357 23 33 35 71 77 88 86 74 63 67 60 58 50 44 41 36 31 27 24 23 14 7 360 360 356 354
217 221 222 217 214 221 230 235 231 224 224 229 234 229 230 239 246 262 294 334 345 340 331 358 5 9 55 76 92 92 75 61 57 44 43 35 23 21 20 14 15 13 11 6 359 356 352 347 346
224 228 230 226 222 226 233 240 242 239 234 234 236 236 238 244 254 260 259 285 287 323 340 305 279 290 112 71 36 23 19 16 6 341 342 354 355 1 358 2 5 6 1 358 357 345 337 335 336
231 231 235 232 230 230 234 241 245 241 241 241 238 235 236 245 251 257 260 267 262 270 282 269 256 262 278 281 297 294 294 316 305 297 291 300 324 346 352 352 353 354 351 347 347 335 328 329 330
236 236 238 237 233 236 239 240 244 240 241 241 243 242 241 244 246 251 256 262 269 270 275 269 247 243 244 255 272 281 282 290 291 283 279 274 279 309 328 328 331 336 338 333 330 327 325 324 327
243 241 239 238 238 244 246 247 245 242 237 239 242 243 244 245 248 247 249 258 266 267 271 265 254 249 241 246 259 267 273 275 275 277 284 279 268 276 288 299 306 313 320 323 323 323 323 326 327
244 243 240 239 239 244 247 250 244 240 239 240 243 242 241 242 245 247 251 255 261 268 269 262 258 256 248 246 256 260 264 266 270 270 279 280 272 271 280 286 292 299 306 312 315 318 320 323 324
248 245 245 244 244 245 248 251 246 242 243 238 238 241 244 246 246 247 251 255 257 259 263 267 263 259 255 253 257 259 260 264 266 268 273 278 273 271 278 285 289 296 301 305 310 314 317 320 321
253 250 247 247 248 250 251 251 249 248 251 247 243 242 246 248 248 249 249 252 252 254 256 260 262 258 255 257 259 260 260 262 263 266 270 270 271 273 280 286 288 292 298 299 303 306 311 316 317
255 254 250 247 249 252 252 248 249 254 254 253 250 250 253 253 251 251 250 251 253 255 257 258 258 259 256 258 260 261 262 263 263 265 269 267 268 272 279 284 285 287 293 297 298 300 307 311 313
259 254 251 249 248 251 253 252 252 255 258 257 257 257 258 257 254 252 251 251 252 253 255 254 253 254 256 257 259 260 258 259 263 265 265 267 270 273 277 282 285 286 287 294 295 296 303 307 310
263 257 252 251 252 255 256 254 254 257 258 255 255 259 260 258 253 252 253 253 254 254 254 253 255 255 255 256 255 258 260 259 262 263 262 267 272 273 277 281 285 285 285 289 293 295 300 304 307
265 258 256 254 255 254 255 254 253 255 259 259 260 262 261 258 258 258 256 255 252 249 249 250 252 254 254 254 254 255 259 260 259 256 259 266 269 273 276 276 280 286 288 288 288 290 296 302 303
264 259 258 257 258 256 257 257 256 257 259 259 260 260 259 261 260 259 256 253 250 249 248 247 252 254 254 254 256 254 255 256 255 253 258 263 265 270 276 273 278 284 287 288 287 288 293 297 297
262 259 258 258 261 258 258 259 258 258 258 259 259 259 258 260 260 257 255 253 251 249 250 250 250 256 257 257 256 255 255 255 255 254 258 258 261 267 269 273 280 283 282 284 285 289 291 290 292
267 261 259 261 264 262 262 263 260 258 258 260 259 259 258 259 258 257 254 254 253 249 248 251 253 255 254 255 258 260 257 254 253 255 257 256 260 263 266 274 276 277 279 282 283 286 287 287 289
270 265 261 263 266 267 268 266 262 257 258 260 262 260 260 258 258 258 256 255 254 250 248 250 253 253 252 254 258 257 256 254 255 256 257 256 259 263 268 273 272 275 280 283 282 285 284 286 289
269 267 265 265 265 266 268 268 265 262 260 261 262 260 258 258 255 257 256 254 252 250 249 249 251 252 252 253 254 254 253 250 252 254 255 260 261 264 269 271 273 275 279 284 284 285 286 287 289
269 267 268 267 266 266 268 268 268 264 261 262 262 258 258 258 254 255 254 253 251 249 250 251 250 250 252 252 253 254 252 250 252 254 255 257 259 262 266 269 272 275 278 281 282 284 288 290 292
269 270 270 269 269 268 268 267 266 264 261 261 261 259 257 257 255 253 251 249 248 250 252 253 253 250 249 251 253 255 253 252 253 255 256 256 256 259 261 266 269 271 275 278 280 283 287 289 291
273 273 272 272 271 269 271 272 268 265 263 262 259 257 257 255 256 256 256 253 252 252 252 254 252 250 251 252 252 253 251 252 253 255 258 258 257 258 261 265 267 269 272 275 278 280 282 286 290
276 275 275 275 275 274 273 275 272 267 264 263 261 258 258 257 258 259 259 258 257 257 253 251 250 251 252 252 251 251 251 252 253 255 258 260 261 260 265 268 267 270 274 276 274 276 280 284 288
276 276 277 276 277 277 278 277 273 269 266 262 260 259 260 260 262 262 260 258 257 255 252 250 249 251 250 249 249 250 252 254 253 254 256 258 259 260 263 269 271 272 273 275 273 276 279 283 284
276 277 280 280 279 278 280 279 276 269 266 261 259 260 259 259 261 261 259 256 252 250 251 252 251 249 250 250 251 251 254 256 255 255 256 258 260 262 265 269 271 273 273 274 274 276 277 282 282
276 277 281 282 280 280 281 282 279 271 266 265 264 262 262 263 263 263 260 255 252 251 251 254 253 251 250 252 254 255 256 257 256 255 255 258 261 263 268 271 271 272 275 275 273 275 273 277 279
275 276 282 283 279 280 283 286 278 270 267 267 266 265 263 262 262 262 259 255 252 253 252 253 252 253 255 255 254 257 257 255 254 256 256 258 261 262 266 268 271 272 273 274 274 273 272 273 275
273 277 279 279 280 281 282 283 283 272 269 267 266 266 263 261 261 261 259 255 250 251 252 251 252 253 257 258 257 256 258 256 256 257 255 256 259 261 262 266 271 272 272 272 272 271 274 274 274
271 274 275 276 277 280 283 280 283 277 271 268 267 266 264 262 262 261 258 257 256 250 249 251 251 253 255 256 258 258 256 257 258 258 258 258 259 261 262 264 269 271 273 272 272 273 275 274 275
266 271 272 274 275 277 282 281 281 279 273 268 265 266 265 263 264 261 257 259 259 255 252 252 253 253 254 257 259 259 257 259 261 260 260 259 259 261 261 265 268 270 272 273 274 275 275 271 274
Height
5876 5877 5878 5880 5881 5881 5881 5882 5883 5884 5885 5885 5886 5886 5886 5887 5889 5891 5889 5887 5887 5888 5888 5887 5887 5887 5887 5887 5887 5887 5887 5887 5887 5887 5888 5888 5888 5888 5889 5889 5889 5889 5889 5889 5889 5889 5889 5889 5888
5875 5877 5879 5880 5880 5881 5882 5882 5883 5884 5885 5885 5886 5886 5886 5887 5888 5888 5888 5888 5888 5888 5888 5888 5887 5887 5888 5887 5888 5887 5887 5887 5888 5888 5888 5888 5888 5889 5889 5889 5890 5890 5890 5890 5889 5889 5889 5888 5888
5875 5876 5878 5879 5880 5881 5881 5882 5882 5883 5884 5885 5886 5886 5887 5887 5887 5888 5888 5888 5888 5887 5888 5888 5888 5888 5888 5888 5888 5888 5888 5888 5888 5888 5889 5889 5889 5889 5889 5890 5890 5890 5890 5889 5889 5889 5889 5888 5887
5875 5877 5878 5879 5879 5880 5881 5881 5882 5883 5884 5884 5885 5886 5886 5887 5887 5888 5888 5888 5888 5888 5887 5887 5888 5888 5888 5888 5888 5888 5888 5888 5888 5889 5889 5889 5889 5889 5890 5890 5890 5890 5890 5889 5889 5889 5888 5888 5887
5874 5876 5877 5877 5878 5879 5880 5881 5881 5882 5882 5883 5884 5885 5885 5886 5886 5887 5887 5888 5888 5888 5888 5887 5887 5887 5888 5888 5888 5888 5888 5888 5888 5889 5889 5889 5889 5890 5890 5890 5890 5890 5890 5889 5889 5888 5888 5887 5886
5874 5875 5876 5877 5878 5878 5879 5880 5880 5881 5881 5882 5883 5884 5885 5885 5886 5886 5887 5887 5887 5887 5887 5887 5887 5887 5887 5888 5888 5888 5888 5888 5888 5889 5889 5889 5889 5889 5890 5890 5890 5890 5889 5889 5889 5888 5887 5886 5885
5874 5874 5875 5876 5877 5877 5878 5878 5879 5879 5880 5881 5882 5883 5884 5884 5885 5885 5886 5886 5886 5886 5886 5886 5886 5886 5887 5887 5887 5887 5888 5888 5888 5888 5889 5889 5889 5889 5889 5889 5889 5889 5889 5888 5888 5887 5886 5886 5885
5872 5874 5873 5874 5875 5876 5877 5877 5877 5878 5879 5880 5881 5882 5883 5883 5884 5884 5885 5885 5885 5886 5886 5886 5886 5886 5886 5886 5887 5887 5887 5888 5888 5888 5888 5888 5888 5889 5889 5889 5889 5888 5888 5887 5887 5886 5886 5885 5884
5870 5873 5872 5873 5874 5875 5875 5876 5876 5877 5878 5878 5879 5880 5881 5881 5882 5883 5883 5884 5884 5885 5885 5885 5885 5885 5885 5886 5886 5886 5886 5887 5887 5887 5887 5888 5888 5888 5888 5888 5888 5887 5887 5886 5886 5885 5885 5884 5883
5869 5870 5871 5872 5872 5873 5873 5874 5875 5875 5876 5877 5878 5878 5879 5879 5880 5881 5882 5882 5883 5883 5883 5883 5884 5884 5884 5885 5885 5885 5885 5886 5886 5886 5886 5887 5887 5887 5887 5886 5886 5886 5885 5885 5885 5884 5883 5883 5881
5867 5868 5869 5869 5870 5871 5871 5872 5873 5874 5874 5875 5876 5877 5877 5878 5878 5879 5879 5880 5881 5881 5881 5882 5882 5883 5883 5883 5884 5884 5884 5884 5885 5885 5885 5885 5885 5885 5885 5885 5885 5884 5884 5884 5883 5883 5882 5881 5880
5866 5866 5867 5867 5868 5869 5870 5871 5871 5872 5873 5873 5874 5874 5875 5876 5876 5877 5877 5878 5879 5879 5879 5880 5880 5881 5881 5882 5882 5882 5883 5883 5883 5883 5883 5883 5884 5884 5884 5884 5883 5883 5882 5882 5882 5881 5881 5880 5879
5864 5864 5865 5866 5866 5867 5868 5869 5870 5870 5871 5871 5872 5872 5873 5873 5874 5874 5875 5876 5876 5877 5877 5878 5878 5879 5879 5880 5880 5881 5881 5881 5881 5881 5882 5882 5882 5882 5882 5882 5882 5881 5881 5880 5880 5880 5879 5878 5877
5862 5862 5863 5864 5865 5865 5866 5867 5868 5868 5868 5869 5869 5870 5870 5871 5871 5872 5872 5873 5874 5874 5875 5875 5876 5876 5877 5878 5878 5879 5879 5879 5879 5879 5880 5880 5880 5880 5880 5880 5880 5880 5879 5879 5878 5878 5877 5876 5876
5860 5861 5862 5862 5863 5863 5864 5865 5866 5866 5866 5867 5867 5868 5868 5868 5869 5869 5869 5870 5871 5872 5872 5873 5873 5874 5874 5875 5876 5876 5876 5877 5877 5877 5878 5878 5878 5878 5878 5878 5878 5878 5877 5877 5876 5876 5875 5875 5874
5858 5859 5860 5861 5860 5861 5863 5863 5863 5863 5864 5864 5864 5865 5865 5866 5866 5866 5867 5868 5868 5869 5869 5870 5870 5871 5872 5873 5873 5874 5874 5874 5875 5875 5876 5876 5876 5877 5876 5876 5876 5876 5875 5875 5875 5874 5873 5873 5872
5856 5857 5857 5858 5858 5858 5859 5860 5860 5860 5861 5861 5861 5862 5863 5863 5863 5863 5864 5865 5865 5866 5866 5867 5867 5868 5869 5870 5870 5871 5872 5872 5872 5873 5873 5874 5874 5875 5875 5874 5874 5874 5873 5873 5873 5872 5871 5871 5870
5854 5854 5855 5855 5856 5856 5856 5857 5857 5857 5857 5858 5859 5859 5860 5860 5861 5861 5861 5861 5862 5863 5863 5864 5864 5865 5866 5867 5868 5868 5869 5869 5870 5870 5871 5871 5872 5872 5872 5872 5872 5872 5871 5871 5870 5870 5869 5868 5868
5851 5852 5852 5853 5853 5853 5853 5853 5854 5854 5854 5855 5855 5856 5856 5857 5857 5857 5858 5858 5859 5860 5860 5861 5862 5862 5863 5864 5865 5866 5866 5867 5867 5868 5868 5869 5869 5870 5870 5870 5869 5869 5869 5868 5868 5867 5867 5866 5866
5848 5849 5850 5850 5850 5850 5850 5851 5851 5851 5851 5852 5852 5852 5853 5854 5854 5854 5855 5855 5856 5856 5857 5858 5858 5859 5860 5861 5862 5863 5863 5864 5864 5865 5866 5866 5866 5867 5867 5867 5867 5867 5866 5866 5865 5865 5865 5864 5863
5846 5846 5847 5847 5847 5846 5847 5848 5848 5848 5848 5848 5849 5849 5850 5851 5851 5851 5852 5852 5853 5853 5853 5854 5855 5856 5857 5858 5859 5860 5860 5861 5861 5862 5863 5863 5864 5864 5864 5864 5864 5864 5864 5864 5863 5863 5862 5862 5861
5843 5844 5843 5843 5844 5844 5844 5844 5845 5844 5845 5845 5845 5846 5847 5848 5848 5848 5849 5849 5850 5850 5850 5851 5852 5853 5854 5855 5856 5857 5857 5858 5858 5859 5860 5860 5861 5861 5861 5861 5861 5861 5861 5861 5861 5861 5860 5859 5858
5841 5840 5840 5840 5840 5840 5840 5840 5842 5841 5842 5842 5842 5843 5844 5844 5845 5845 5845 5846 5846 5847 5847 5848 5849 5850 5851 5852 5853 5854 5854 5855 5855 5856 5857 5857 5858 5858 5858 5858 5858 5858 5858 5858 5858 5858 5857 5857 5856
5837 5837 5837 5837 5837 5837 5837 5836 5838 5838 5838 5839 5839 5839 5840 5841 5841 5841 5842 5842 5843 5844 5844 5845 5846 5847 5848 5848 5849 5850 5851 5852 5852 5853 5854 5854 5854 5855 5855 5855 5855 5855 5855 5855 5855 5855 5854 5854 5853
5834 5834 5834 5833 5833 5834 5834 5832 5834 5834 5835 5835 5835 5835 5836 5837 5837 5838 5838 5839 5839 5840 5841 5842 5843 5843 5844 5845 5846 5847 5848 5848 5849 5850 5850 5851 5851 5851 5851 5851 5852 5852 5852 5852 5851 5851 5851 5850 5850
5831 5831 5832 5831 5830 5830 5830 5829 5831 5831 5831 5831 5832 5832 5832 5833 5834 5834 5835 5835 5836 5837 5838 5838 5839 5840 5841 5842 5842 5843 5844 5845 5845 5846 5847 5847 5847 5848 5848 5848 5848 5848 5848 5848 5848 5848 5847 5847 5847
5828 5828 5828 5827 5826 5826 5827 5827 5827 5827 5827 5828 5828 5828 5829 5829 5830 5830 5831 5831 5832 5833 5834 5835 5836 5837 5837 5838 5839 5839 5840 5841 5841 5842 5843 5843 5843 5844 5844 5844 5844 5844 5844 5844 5844 5844 5844 5843 5843
5825 5825 5825 5824 5823 5823 5824 5823 5824 5824 5824 5825 5825 5825 5825 5825 5826 5826 5827 5827 5828 5829 5830 5831 5832 5833 5834 5834 5835 5836 5836 5837 5838 5838 5839 5839 5840 5840 5840 5841 5841 5840 5840 5840 5840 5840 5840 5840 5839
5822 5822 5821 5820 5820 5820 5820 5822 5821 5820 5820 5821 5821 5821 5821 5822 5822 5822 5822 5823 5824 5825 5826 5827 5828 5829 5830 5831 5831 5832 5832 5833 5833 5834 5835 5835 5836 5836 5836 5837 5836 5836 5836 5837 5836 5836 5836 5836 5836
5817 5817 5817 5817 5817 5816 5816 5820 5817 5817 5816 5817 5817 5817 5818 5818 5818 5818 5819 5819 5820 5821 5822 5823 5824 5825 5826 5827 5827 5827 5828 5829 5829 5830 5830 5831 5831 5832 5832 5832 5832 5832 5833 5833 5832 5832 5832 5832 5832